Back to Top

Language: 

My Weather Underground Personal Weather Station Historical Data with Graphs...

Delerius Weather Station Historical Data
Daily Summary for October 14, 2017 Units:  Metric    English   Both
« Previous Day
Next Day »
Daily Weekly Monthly Yearly Custom
  High: Low: Average:
Temperature: 21.7 °C 14.8 °C 18.2 °C
Dew Point: 16.5 °C 12.3 °C 14.7 °C
Humidity: 88 % 68 % 81 %
Wind Speed: 29 km/h 0 km/h 13.2 km/h
Wind Gust: 51.5 km/h - -
Wind:- - SW
Pressure: 1020.2 hPa 1016.1 hPa -
Precipitation: 0 mm    
Historical Graphs
 
 
Tabular Data for October 14, 2017
Time Temperature Dew Point Pressure Wind Wind Speed Wind Gust Humidity Rainfall Rate (Hourly) solar Conditions
00:00 18 °C 15.6 °C 1016.5 hPa WSW 14.5 km/h 32.2 km/h 86 % 0 mm 0 W/m2
00:01 18 °C 15.6 °C 1016.5 hPa WSW 14.5 km/h 32.2 km/h 86 % 0 mm 0 W/m2
00:06 18 °C 15.6 °C 1016.1 hPa SW 14.5 km/h 30.6 km/h 86 % 0 mm 0 W/m2
00:11 18.1 °C 15.7 °C 1016.1 hPa SW 16.1 km/h 30.6 km/h 86 % 0 mm 0 W/m2
00:16 18.1 °C 15.7 °C 1016.1 hPa WSW 16.1 km/h 30.6 km/h 86 % 0 mm 0 W/m2
00:21 18.1 °C 15.7 °C 1016.1 hPa WSW 17.7 km/h 30.6 km/h 86 % 0 mm 0 W/m2
00:26 18 °C 15.6 °C 1016.1 hPa WSW 17.7 km/h 30.6 km/h 86 % 0 mm 0 W/m2
00:31 18 °C 15.6 °C 1016.5 hPa WSW 17.7 km/h 35.4 km/h 86 % 0 mm 0 W/m2
00:36 18 °C 15.6 °C 1016.1 hPa WSW 20.9 km/h 38.6 km/h 86 % 0 mm 0 W/m2
00:41 18 °C 15.4 °C 1016.5 hPa WSW 20.9 km/h 40.2 km/h 85 % 0 mm 0 W/m2
00:46 17.9 °C 15.3 °C 1016.5 hPa WSW 20.9 km/h 48.3 km/h 85 % 0 mm 0 W/m2
00:51 17.9 °C 15.5 °C 1016.5 hPa WSW 20.9 km/h 48.3 km/h 86 % 0 mm 0 W/m2
00:57 17.9 °C 15.5 °C 1016.5 hPa WSW 20.9 km/h 40.2 km/h 86 % 0 mm 0 W/m2
01:02 17.9 °C 15.5 °C 1016.5 hPa WSW 22.5 km/h 48.3 km/h 86 % 0 mm 0 W/m2
01:07 17.9 °C 15.5 °C 1016.5 hPa WSW 24.1 km/h 48.3 km/h 86 % 0 mm 0 W/m2
01:12 17.9 °C 15.3 °C 1016.5 hPa WSW 24.1 km/h 49.9 km/h 85 % 0 mm 0 W/m2
01:17 17.9 °C 15.3 °C 1016.8 hPa WSW 20.9 km/h 49.9 km/h 85 % 0 mm 0 W/m2
01:22 17.8 °C 15.2 °C 1016.5 hPa WSW 19.3 km/h 40.2 km/h 85 % 0 mm 0 W/m2
01:27 17.8 °C 15.2 °C 1016.5 hPa WSW 19.3 km/h 38.6 km/h 85 % 0 mm 0 W/m2
01:31 17.7 °C 15.2 °C 1016.5 hPa WSW 19.3 km/h 46.7 km/h 85 % 0 mm 0 W/m2
01:37 17.7 °C 15.2 °C 1016.5 hPa WSW 24.1 km/h 48.3 km/h 85 % 0 mm 0 W/m2
01:42 17.7 °C 15.2 °C 1016.5 hPa WSW 27.4 km/h 48.3 km/h 85 % 0 mm 0 W/m2
01:47 17.7 °C 15.2 °C 1016.5 hPa WSW 29 km/h 48.3 km/h 85 % 0 mm 0 W/m2
01:52 17.7 °C 14.9 °C 1016.8 hPa WSW 29 km/h 48.3 km/h 84 % 0 mm 0 W/m2
01:57 17.7 °C 14.9 °C 1016.5 hPa WSW 27.4 km/h 48.3 km/h 84 % 0 mm 0 W/m2
02:02 17.6 °C 14.9 °C 1016.5 hPa WSW 20.9 km/h 48.3 km/h 84 % 0 mm 0 W/m2
02:07 17.5 °C 14.8 °C 1016.8 hPa WSW 20.9 km/h 41.8 km/h 84 % 0 mm 0 W/m2
02:12 17.4 °C 14.5 °C 1016.8 hPa WSW 22.5 km/h 41.8 km/h 83 % 0 mm 0 W/m2
02:17 17.4 °C 14.5 °C 1016.8 hPa WSW 22.5 km/h 45.1 km/h 83 % 0 mm 0 W/m2
02:22 17.5 °C 14.4 °C 1016.8 hPa WSW 27.4 km/h 46.7 km/h 82 % 0 mm 0 W/m2
02:27 17.6 °C 14.5 °C 1016.8 hPa WSW 27.4 km/h 46.7 km/h 82 % 0 mm 0 W/m2
02:32 17.5 °C 14.4 °C 1016.8 hPa WSW 25.7 km/h 41.8 km/h 82 % 0 mm 0 W/m2
02:37 17.4 °C 14.3 °C 1016.8 hPa WSW 24.1 km/h 46.7 km/h 82 % 0 mm 0 W/m2
02:42 17.4 °C 14.3 °C 1016.8 hPa WSW 24.1 km/h 46.7 km/h 82 % 0 mm 0 W/m2
02:47 17.4 °C 14.3 °C 1016.8 hPa WSW 20.9 km/h 43.5 km/h 82 % 0 mm 0 W/m2
02:52 17.3 °C 14.2 °C 1016.8 hPa WSW 17.7 km/h 43.5 km/h 82 % 0 mm 0 W/m2
02:57 17.3 °C 14.2 °C 1016.8 hPa SW 19.3 km/h 37 km/h 82 % 0 mm 0 W/m2
03:02 17.4 °C 14.3 °C 1016.8 hPa SW 20.9 km/h 43.5 km/h 82 % 0 mm 0 W/m2
03:07 17.3 °C 14.2 °C 1016.8 hPa WSW 19.3 km/h 43.5 km/h 82 % 0 mm 0 W/m2
03:12 17.4 °C 14.3 °C 1016.8 hPa WSW 20.9 km/h 51.5 km/h 82 % 0 mm 0 W/m2
03:17 17.4 °C 14.3 °C 1016.8 hPa WSW 20.9 km/h 51.5 km/h 82 % 0 mm 0 W/m2
03:22 17.3 °C 14.2 °C 1016.8 hPa WSW 16.1 km/h 29 km/h 82 % 0 mm 0 W/m2
03:27 17.3 °C 14.4 °C 1016.8 hPa SW 14.5 km/h 25.7 km/h 83 % 0 mm 0 W/m2
03:32 17.2 °C 14.3 °C 1016.8 hPa SW 16.1 km/h 32.2 km/h 83 % 0 mm 0 W/m2
03:37 17.2 °C 14.3 °C 1016.8 hPa SW 17.7 km/h 38.6 km/h 83 % 0 mm 0 W/m2
03:42 17.2 °C 14.4 °C 1016.8 hPa SW 16.1 km/h 41.8 km/h 84 % 0 mm 0 W/m2
03:47 17.1 °C 14.4 °C 1016.8 hPa WSW 16.1 km/h 41.8 km/h 84 % 0 mm 0 W/m2
03:52 17.1 °C 14.6 °C 1016.8 hPa WSW 16.1 km/h 30.6 km/h 85 % 0 mm 0 W/m2
03:57 17.1 °C 14.6 °C 1016.8 hPa WSW 14.5 km/h 30.6 km/h 85 % 0 mm 0 W/m2
04:02 17.1 °C 14.6 °C 1017.2 hPa West 16.1 km/h 43.5 km/h 85 % 0 mm 0 W/m2
04:07 17.1 °C 14.6 °C 1017.2 hPa West 16.1 km/h 43.5 km/h 85 % 0 mm 0 W/m2
04:12 17.1 °C 14.6 °C 1017.2 hPa WSW 12.9 km/h 22.5 km/h 85 % 0 mm 0 W/m2
04:17 17.1 °C 14.6 °C 1017.2 hPa WSW 14.5 km/h 25.7 km/h 85 % 0 mm 0 W/m2
04:20 17.1 °C 14.6 °C 1017.2 hPa WSW 16.1 km/h 25.7 km/h 85 % 0 mm 0 W/m2
04:24 17.1 °C 14.6 °C 1017.2 hPa WSW 14.5 km/h 25.7 km/h 85 % 0 mm 0 W/m2
04:29 17.1 °C 14.6 °C 1017.2 hPa WSW 11.3 km/h 25.7 km/h 85 % 0 mm 0 W/m2
04:34 17.1 °C 14.6 °C 1017.5 hPa WSW 11.3 km/h 25.7 km/h 85 % 0 mm 0 W/m2
04:39 17.1 °C 14.6 °C 1017.2 hPa WSW 12.9 km/h 29 km/h 85 % 0 mm 0 W/m2
04:44 17.1 °C 14.6 °C 1017.2 hPa WSW 14.5 km/h 29 km/h 85 % 0 mm 0 W/m2
04:49 17.2 °C 14.7 °C 1017.2 hPa WSW 16.1 km/h 30.6 km/h 85 % 0 mm 0 W/m2
04:54 17.2 °C 14.7 °C 1017.2 hPa WSW 16.1 km/h 30.6 km/h 85 % 0 mm 0 W/m2
04:59 17.2 °C 14.8 °C 1017.2 hPa WSW 14.5 km/h 35.4 km/h 86 % 0 mm 0 W/m2
05:04 17.2 °C 14.7 °C 1017.2 hPa WSW 16.1 km/h 40.2 km/h 85 % 0 mm 0 W/m2
05:09 17.2 °C 14.8 °C 1017.2 hPa WSW 16.1 km/h 40.2 km/h 86 % 0 mm 0 W/m2
05:14 17.2 °C 14.8 °C 1017.2 hPa WSW 16.1 km/h 25.7 km/h 86 % 0 mm 0 W/m2
05:19 17.2 °C 14.8 °C 1017.2 hPa WSW 17.7 km/h 30.6 km/h 86 % 0 mm 0 W/m2
05:24 17.2 °C 14.8 °C 1017.2 hPa WSW 17.7 km/h 30.6 km/h 86 % 0 mm 0 W/m2
05:29 17.2 °C 14.8 °C 1017.2 hPa WSW 17.7 km/h 38.6 km/h 86 % 0 mm 0 W/m2
05:34 17.2 °C 14.8 °C 1017.5 hPa WSW 16.1 km/h 38.6 km/h 86 % 0 mm 0 W/m2
05:39 17.2 °C 14.8 °C 1017.2 hPa WSW 17.7 km/h 32.2 km/h 86 % 0 mm 0 W/m2
05:44 17.2 °C 14.8 °C 1017.5 hPa WSW 17.7 km/h 30.6 km/h 86 % 0 mm 0 W/m2
05:49 17.3 °C 14.9 °C 1017.5 hPa WSW 17.7 km/h 32.2 km/h 86 % 0 mm 0 W/m2
05:54 17.2 °C 14.8 °C 1017.2 hPa WSW 16.1 km/h 32.2 km/h 86 % 0 mm 0 W/m2
05:59 17.2 °C 14.8 °C 1017.2 hPa WSW 14.5 km/h 25.7 km/h 86 % 0 mm 0 W/m2
06:04 17.2 °C 14.8 °C 1017.2 hPa SW 14.5 km/h 33.8 km/h 86 % 0 mm 0 W/m2
06:09 17.2 °C 14.8 °C 1017.2 hPa WSW 16.1 km/h 33.8 km/h 86 % 0 mm 0 W/m2
06:14 17.2 °C 14.8 °C 1017.2 hPa WSW 16.1 km/h 30.6 km/h 86 % 0 mm 0 W/m2
06:19 17.2 °C 14.8 °C 1017.2 hPa WSW 12.9 km/h 30.6 km/h 86 % 0 mm 0 W/m2
06:24 17.2 °C 14.8 °C 1017.2 hPa WSW 11.3 km/h 22.5 km/h 86 % 0 mm 0 W/m2
06:29 17.1 °C 14.9 °C 1017.2 hPa WSW 12.9 km/h 24.1 km/h 87 % 0 mm 0 W/m2
06:34 17.2 °C 15 °C 1017.2 hPa SW 17.7 km/h 37 km/h 87 % 0 mm 0 W/m2
06:39 17.3 °C 14.9 °C 1017.2 hPa SW 19.3 km/h 37 km/h 86 % 0 mm 0 W/m2
06:44 17.3 °C 14.9 °C 1017.2 hPa SW 17.7 km/h 30.6 km/h 86 % 0 mm 0 W/m2
06:49 17.3 °C 14.9 °C 1017.5 hPa SW 16.1 km/h 33.8 km/h 86 % 0 mm 0 W/m2
06:54 17.3 °C 14.9 °C 1017.5 hPa WSW 14.5 km/h 33.8 km/h 86 % 0 mm 0 W/m2
06:59 17.3 °C 14.9 °C 1017.5 hPa WSW 14.5 km/h 30.6 km/h 86 % 0 mm 0 W/m2
07:04 17.3 °C 14.9 °C 1017.5 hPa WSW 16.1 km/h 33.8 km/h 86 % 0 mm 0 W/m2
07:10 17.3 °C 14.9 °C 1017.5 hPa WSW 16.1 km/h 33.8 km/h 86 % 0 mm 0 W/m2
07:15 17.3 °C 14.9 °C 1017.5 hPa WSW 17.7 km/h 32.2 km/h 86 % 0 mm 0 W/m2
07:20 17.3 °C 14.9 °C 1017.5 hPa WSW 17.7 km/h 37 km/h 86 % 0 mm 7 W/m2
07:25 17.2 °C 15 °C 1017.5 hPa WSW 16.1 km/h 37 km/h 87 % 0 mm 9 W/m2
07:30 17.2 °C 15 °C 1017.5 hPa WSW 17.7 km/h 37 km/h 87 % 0 mm 9 W/m2
07:35 17.2 °C 15 °C 1017.5 hPa WSW 17.7 km/h 35.4 km/h 87 % 0 mm 7 W/m2
07:40 17.2 °C 15 °C 1017.5 hPa WSW 19.3 km/h 33.8 km/h 87 % 0 mm 12 W/m2
07:45 17.2 °C 15 °C 1017.8 hPa WSW 20.9 km/h 38.6 km/h 87 % 0 mm 21 W/m2
07:50 17.2 °C 15 °C 1017.8 hPa WSW 19.3 km/h 38.6 km/h 87 % 0 mm 28 W/m2
07:55 17.1 °C 14.9 °C 1017.8 hPa WSW 17.7 km/h 33.8 km/h 87 % 0 mm 35 W/m2
08:00 17.2 °C 15.2 °C 1017.8 hPa WSW 19.3 km/h 33.8 km/h 88 % 0 mm 40 W/m2
08:05 17.1 °C 15.1 °C 1017.8 hPa SW 19.3 km/h 33.8 km/h 88 % 0 mm 49 W/m2
08:10 17.1 °C 15.1 °C 1018.2 hPa WSW 17.7 km/h 33.8 km/h 88 % 0 mm 56 W/m2
08:15 17.1 °C 15.1 °C 1018.2 hPa WSW 16.1 km/h 30.6 km/h 88 % 0 mm 67 W/m2
08:20 17.1 °C 15.1 °C 1018.2 hPa WSW 14.5 km/h 30.6 km/h 88 % 0 mm 83 W/m2
08:25 17.2 °C 15.2 °C 1018.2 hPa WSW 17.7 km/h 37 km/h 88 % 0 mm 67 W/m2
08:30 17.3 °C 15.3 °C 1018.2 hPa WSW 19.3 km/h 37 km/h 88 % 0 mm 130 W/m2
08:35 17.4 °C 15.4 °C 1018.2 hPa WSW 17.7 km/h 32.2 km/h 88 % 0 mm 125 W/m2
08:40 17.5 °C 15.3 °C 1018.5 hPa WSW 19.3 km/h 32.2 km/h 87 % 0 mm 88 W/m2
08:45 17.6 °C 15.4 °C 1018.5 hPa WSW 17.7 km/h 29 km/h 87 % 0 mm 109 W/m2
08:50 17.5 °C 15.3 °C 1018.2 hPa WSW 17.7 km/h 29 km/h 87 % 0 mm 160 W/m2
08:55 17.6 °C 15.4 °C 1018.2 hPa WSW 17.7 km/h 32.2 km/h 87 % 0 mm 91 W/m2
09:00 17.5 °C 15.3 °C 1018.2 hPa WSW 17.7 km/h 33.8 km/h 87 % 0 mm 158 W/m2
09:05 17.6 °C 15.4 °C 1018.5 hPa WSW 19.3 km/h 33.8 km/h 87 % 0 mm 204 W/m2
09:10 17.7 °C 15.5 °C 1018.5 hPa WSW 19.3 km/h 35.4 km/h 87 % 0 mm 316 W/m2
09:15 17.8 °C 15.6 °C 1018.5 hPa WSW 19.3 km/h 35.4 km/h 87 % 0 mm 160 W/m2
09:20 17.9 °C 15.7 °C 1018.5 hPa WSW 17.7 km/h 32.2 km/h 87 % 0 mm 172 W/m2
09:25 17.9 °C 15.5 °C 1018.5 hPa SW 17.7 km/h 32.2 km/h 86 % 0 mm 169 W/m2
09:30 18.1 °C 15.9 °C 1018.8 hPa WSW 19.3 km/h 33.8 km/h 87 % 0 mm 381 W/m2
09:35 18.3 °C 15.7 °C 1018.8 hPa WSW 20.9 km/h 41.8 km/h 85 % 0 mm 285 W/m2
09:40 18.4 °C 15.8 °C 1018.8 hPa WSW 20.9 km/h 41.8 km/h 85 % 0 mm 162 W/m2
09:45 18.4 °C 15.7 °C 1018.8 hPa WSW 19.3 km/h 37 km/h 84 % 0 mm 165 W/m2
09:50 18.4 °C 15.7 °C 1018.8 hPa WSW 17.7 km/h 37 km/h 84 % 0 mm 172 W/m2
09:55 18.4 °C 15.7 °C 1018.8 hPa WSW 16.1 km/h 30.6 km/h 84 % 0 mm 192 W/m2
10:00 18.4 °C 15.7 °C 1018.8 hPa WSW 16.1 km/h 30.6 km/h 84 % 0 mm 153 W/m2
10:05 18.5 °C 15.7 °C 1018.8 hPa SW 16.1 km/h 29 km/h 84 % 0 mm 149 W/m2
10:10 18.6 °C 15.7 °C 1019.2 hPa SW 19.3 km/h 41.8 km/h 83 % 0 mm 193 W/m2
10:15 18.6 °C 15.7 °C 1018.8 hPa SW 22.5 km/h 41.8 km/h 83 % 0 mm 232 W/m2
10:20 18.7 °C 15.8 °C 1018.8 hPa SW 19.3 km/h 32.2 km/h 83 % 0 mm 186 W/m2
10:25 18.7 °C 15.6 °C 1018.8 hPa SW 17.7 km/h 32.2 km/h 82 % 0 mm 209 W/m2
10:30 18.8 °C 15.7 °C 1018.8 hPa SW 17.7 km/h 32.2 km/h 82 % 0 mm 517 W/m2
10:35 19.2 °C 16.1 °C 1018.8 hPa SW 16.1 km/h 32.2 km/h 82 % 0 mm 397 W/m2
10:40 19.2 °C 15.7 °C 1018.8 hPa SW 19.3 km/h 43.5 km/h 80 % 0 mm 220 W/m2
10:45 19.2 °C 15.7 °C 1018.8 hPa SW 19.3 km/h 43.5 km/h 80 % 0 mm 526 W/m2
10:50 19.4 °C 15.8 °C 1018.8 hPa WSW 14.5 km/h 25.7 km/h 80 % 0 mm 288 W/m2
10:55 19.6 °C 15.8 °C 1019.2 hPa SW 11.3 km/h 24.1 km/h 79 % 0 mm 417 W/m2
11:00 19.7 °C 15.8 °C 1019.2 hPa SW 9.7 km/h 24.1 km/h 78 % 0 mm 504 W/m2
11:05 19.9 °C 15.9 °C 1019.2 hPa SW 8 km/h 19.3 km/h 78 % 0 mm 387 W/m2
11:10 19.9 °C 15.7 °C 1019.2 hPa SW 11.3 km/h 20.9 km/h 77 % 0 mm 413 W/m2
11:15 20.1 °C 15.9 °C 1019.2 hPa SW 9.7 km/h 20.9 km/h 77 % 0 mm 294 W/m2
11:20 20.2 °C 15.8 °C 1019.2 hPa SW 12.9 km/h 24.1 km/h 76 % 0 mm 260 W/m2
11:25 20.2 °C 15.8 °C 1019.2 hPa SW 14.5 km/h 24.1 km/h 76 % 0 mm 294 W/m2
11:30 20.2 °C 15.8 °C 1019.5 hPa WSW 14.5 km/h 24.1 km/h 76 % 0 mm 264 W/m2
11:35 20.2 °C 15.6 °C 1019.2 hPa WSW 12.9 km/h 24.1 km/h 75 % 0 mm 353 W/m2
11:40 20.3 °C 15.5 °C 1019.5 hPa WSW 14.5 km/h 35.4 km/h 74 % 0 mm 304 W/m2
11:46 20.6 °C 16 °C 1019.5 hPa WSW 16.1 km/h 35.4 km/h 75 % 0 mm 577 W/m2
11:51 20.7 °C 16.5 °C 1019.5 hPa WSW 12.9 km/h 24.1 km/h 77 % 0 mm 524 W/m2
11:56 20.3 °C 15.9 °C 1019.2 hPa WSW 12.9 km/h 24.1 km/h 76 % 0 mm 596 W/m2
12:01 20.6 °C 16 °C 1019.5 hPa WSW 16.1 km/h 25.7 km/h 75 % 0 mm 552 W/m2
12:06 20.8 °C 16 °C 1019.5 hPa WSW 16.1 km/h 25.7 km/h 74 % 0 mm 425 W/m2
12:11 20.9 °C 15.9 °C 1019.5 hPa WSW 14.5 km/h 22.5 km/h 73 % 0 mm 251 W/m2
12:16 20.8 °C 15.6 °C 1019.2 hPa WSW 14.5 km/h 29 km/h 72 % 0 mm 255 W/m2
12:21 20.7 °C 15.7 °C 1019.5 hPa WSW 16.1 km/h 32.2 km/h 73 % 0 mm 237 W/m2
12:26 20.7 °C 15.7 °C 1019.2 hPa West 14.5 km/h 32.2 km/h 73 % 0 mm 237 W/m2
12:31 20.5 °C 15.5 °C 1019.2 hPa WSW 16.1 km/h 33.8 km/h 73 % 0 mm 206 W/m2
12:36 20.3 °C 15.5 °C 1019.2 hPa SW 16.1 km/h 33.8 km/h 74 % 0 mm 207 W/m2
12:41 20.2 °C 15.4 °C 1019.2 hPa SW 14.5 km/h 33.8 km/h 74 % 0 mm 202 W/m2
12:46 20.2 °C 15.6 °C 1019.2 hPa SW 14.5 km/h 25.7 km/h 75 % 0 mm 519 W/m2
12:51 20.3 °C 15.5 °C 1019.5 hPa SW 14.5 km/h 29 km/h 74 % 0 mm 195 W/m2
12:56 20.3 °C 15.3 °C 1019.5 hPa SW 14.5 km/h 29 km/h 73 % 0 mm 153 W/m2
13:01 20.2 °C 15.4 °C 1019.5 hPa SW 12.9 km/h 22.5 km/h 74 % 0 mm 188 W/m2
13:06 20.1 °C 15.3 °C 1019.2 hPa SW 12.9 km/h 25.7 km/h 74 % 0 mm 142 W/m2
13:11 19.9 °C 15.3 °C 1019.2 hPa SW 11.3 km/h 25.7 km/h 75 % 0 mm 127 W/m2
13:16 19.9 °C 15.3 °C 1019.2 hPa SW 8 km/h 16.1 km/h 75 % 0 mm 144 W/m2
13:21 19.9 °C 15.3 °C 1019.5 hPa SW 9.7 km/h 30.6 km/h 75 % 0 mm 132 W/m2
13:26 19.9 °C 15.3 °C 1019.2 hPa SW 11.3 km/h 30.6 km/h 75 % 0 mm 178 W/m2
13:31 19.9 °C 15.3 °C 1019.5 hPa SW 9.7 km/h 19.3 km/h 75 % 0 mm 185 W/m2
13:36 20.1 °C 15.3 °C 1019.5 hPa SW 12.9 km/h 29 km/h 74 % 0 mm 181 W/m2
13:41 20.1 °C 15.6 °C 1019.5 hPa SW 11.3 km/h 29 km/h 75 % 0 mm 209 W/m2
13:46 20.2 °C 15.4 °C 1019.5 hPa SW 9.7 km/h 19.3 km/h 74 % 0 mm 193 W/m2
13:51 20.3 °C 15.3 °C 1019.5 hPa WSW 11.3 km/h 19.3 km/h 73 % 0 mm 153 W/m2
13:56 20.4 °C 15.4 °C 1019.5 hPa WSW 12.9 km/h 33.8 km/h 73 % 0 mm 128 W/m2
14:01 20.4 °C 15.4 °C 1019.5 hPa SW 12.9 km/h 33.8 km/h 73 % 0 mm 146 W/m2
14:06 20.3 °C 15.3 °C 1019.5 hPa WSW 12.9 km/h 25.7 km/h 73 % 0 mm 120 W/m2
14:11 20.3 °C 15.3 °C 1019.5 hPa WSW 12.9 km/h 25.7 km/h 73 % 0 mm 114 W/m2
14:16 20.3 °C 15.1 °C 1019.5 hPa WSW 12.9 km/h 35.4 km/h 72 % 0 mm 118 W/m2
14:21 20.3 °C 15.1 °C 1019.5 hPa WSW 17.7 km/h 35.4 km/h 72 % 0 mm 104 W/m2
14:26 20.3 °C 15.1 °C 1019.5 hPa WSW 17.7 km/h 33.8 km/h 72 % 0 mm 350 W/m2
14:31 20.5 °C 15.3 °C 1019.9 hPa SW 16.1 km/h 30.6 km/h 72 % 0 mm 397 W/m2
14:36 20.8 °C 15.6 °C 1019.5 hPa SW 16.1 km/h 30.6 km/h 72 % 0 mm 526 W/m2
14:41 21.2 °C 15.5 °C 1019.5 hPa WSW 14.5 km/h 29 km/h 70 % 0 mm 499 W/m2
14:46 21.3 °C 15.6 °C 1019.9 hPa WSW 14.5 km/h 22.5 km/h 70 % 0 mm 506 W/m2
14:51 21.6 °C 15.9 °C 1019.5 hPa WSW 12.9 km/h 22.5 km/h 70 % 0 mm 503 W/m2
14:56 21.7 °C 15.6 °C 1019.5 hPa WSW 12.9 km/h 22.5 km/h 68 % 0 mm 515 W/m2
15:01 21.7 °C 15.6 °C 1019.9 hPa SW 14.5 km/h 25.7 km/h 68 % 0 mm 388 W/m2
15:07 21.7 °C 15.8 °C 1019.9 hPa SW 12.9 km/h 25.7 km/h 69 % 0 mm 473 W/m2
15:12 21.6 °C 15.4 °C 1019.9 hPa SW 12.9 km/h 32.2 km/h 68 % 0 mm 274 W/m2
15:17 21.6 °C 15.7 °C 1019.9 hPa SW 16.1 km/h 32.2 km/h 69 % 0 mm 424 W/m2
15:22 21.6 °C 15.7 °C 1019.9 hPa SW 16.1 km/h 29 km/h 69 % 0 mm 401 W/m2
15:27 21.6 °C 15.7 °C 1019.9 hPa SW 14.5 km/h 25.7 km/h 69 % 0 mm 390 W/m2
15:32 21.6 °C 15.7 °C 1019.9 hPa SW 12.9 km/h 24.1 km/h 69 % 0 mm 130 W/m2
15:37 21.3 °C 15.4 °C 1020.2 hPa SW 14.5 km/h 24.1 km/h 69 % 0 mm 278 W/m2
15:42 21.3 °C 15.4 °C 1020.2 hPa SW 12.9 km/h 22.5 km/h 69 % 0 mm 390 W/m2
15:47 21.3 °C 15.4 °C 1020.2 hPa SW 12.9 km/h 30.6 km/h 69 % 0 mm 332 W/m2
15:52 21.3 °C 15.4 °C 1019.9 hPa SW 14.5 km/h 30.6 km/h 69 % 0 mm 325 W/m2
15:57 21.4 °C 15.2 °C 1019.9 hPa WSW 14.5 km/h 25.7 km/h 68 % 0 mm 225 W/m2
16:02 21.3 °C 15.2 °C 1019.9 hPa WSW 16.1 km/h 25.7 km/h 68 % 0 mm 276 W/m2
16:07 21.1 °C 15.2 °C 1019.9 hPa SW 12.9 km/h 24.1 km/h 69 % 0 mm 269 W/m2
16:12 21.1 °C 15.2 °C 1019.9 hPa SW 12.9 km/h 19.3 km/h 69 % 0 mm 251 W/m2
16:17 21.1 °C 14.9 °C 1019.9 hPa WSW 12.9 km/h 29 km/h 68 % 0 mm 111 W/m2
16:22 21 °C 15.1 °C 1019.9 hPa WSW 9.7 km/h 29 km/h 69 % 0 mm 244 W/m2
16:27 21 °C 15.1 °C 1019.9 hPa WSW 6.4 km/h 16.1 km/h 69 % 0 mm 202 W/m2
16:32 21 °C 15.1 °C 1019.9 hPa WSW 8 km/h 16.1 km/h 69 % 0 mm 97 W/m2
16:37 20.9 °C 15 °C 1019.9 hPa WSW 8 km/h 16.1 km/h 69 % 0 mm 98 W/m2
16:42 20.8 °C 14.9 °C 1019.9 hPa SW 8 km/h 16.1 km/h 69 % 0 mm 88 W/m2
16:47 20.7 °C 14.8 °C 1019.9 hPa SSW 8 km/h 16.1 km/h 69 % 0 mm 56 W/m2
16:52 20.6 °C 14.9 °C 1019.9 hPa SSW 8 km/h 16.1 km/h 70 % 0 mm 53 W/m2
16:57 20.5 °C 14.8 °C 1019.9 hPa SSW 9.7 km/h 17.7 km/h 70 % 0 mm 95 W/m2
17:02 20.3 °C 14.7 °C 1019.9 hPa SW 11.3 km/h 29 km/h 70 % 0 mm 70 W/m2
17:07 20.2 °C 14.6 °C 1019.9 hPa WSW 14.5 km/h 29 km/h 70 % 0 mm 67 W/m2
17:13 20.1 °C 14.4 °C 1019.9 hPa WSW 11.3 km/h 24.1 km/h 70 % 0 mm 65 W/m2
17:18 20.1 °C 14.7 °C 1019.9 hPa SW 9.7 km/h 17.7 km/h 71 % 0 mm 76 W/m2
17:23 19.9 °C 14.5 °C 1019.9 hPa SSW 11.3 km/h 17.7 km/h 71 % 0 mm 42 W/m2
17:28 19.7 °C 14.3 °C 1019.9 hPa SSW 11.3 km/h 20.9 km/h 71 % 0 mm 28 W/m2
17:33 19.7 °C 14.3 °C 1019.9 hPa SSW 8 km/h 20.9 km/h 71 % 0 mm 25 W/m2
17:38 19.6 °C 14.4 °C 1019.9 hPa SW 6.4 km/h 12.9 km/h 72 % 0 mm 25 W/m2
17:43 19.4 °C 14.4 °C 1019.9 hPa SW 8 km/h 14.5 km/h 73 % 0 mm 25 W/m2
17:48 19.3 °C 14.3 °C 1019.9 hPa SW 8 km/h 14.5 km/h 73 % 0 mm 18 W/m2
17:53 19.2 °C 14.2 °C 1019.9 hPa SW 8 km/h 14.5 km/h 73 % 0 mm 12 W/m2
17:58 19.1 °C 14.3 °C 1019.9 hPa SW 8 km/h 16.1 km/h 74 % 0 mm 9 W/m2
18:03 18.9 °C 14.2 °C 1019.9 hPa SW 9.7 km/h 19.3 km/h 74 % 0 mm 7 W/m2
18:08 18.8 °C 14.3 °C 1019.9 hPa WSW 9.7 km/h 19.3 km/h 75 % 0 mm 0 W/m2
18:13 18.6 °C 14.1 °C 1019.9 hPa SW 9.7 km/h 17.7 km/h 75 % 0 mm 0 W/m2
18:18 18.5 °C 14.2 °C 1019.9 hPa SW 11.3 km/h 19.3 km/h 76 % 0 mm 0 W/m2
18:23 18.4 °C 14.1 °C 1019.9 hPa SW 9.7 km/h 19.3 km/h 76 % 0 mm 0 W/m2
18:28 18.3 °C 14 °C 1020.2 hPa SSW 4.8 km/h 14.5 km/h 76 % 0 mm 0 W/m2
18:33 18.3 °C 14.2 °C 1020.2 hPa SSW 1.6 km/h 8 km/h 77 % 0 mm 0 W/m2
18:38 18.2 °C 14.1 °C 1020.2 hPa SSW 3.2 km/h 8 km/h 77 % 0 mm 0 W/m2
18:39 18.2 °C 14.1 °C 1020.2 hPa SSW 4.8 km/h 9.7 km/h 77 % 0 mm 0 W/m2
18:45 18.1 °C 14 °C 1019.9 hPa SSW 6.4 km/h 12.9 km/h 77 % 0 mm 0 W/m2
18:50 17.9 °C 14 °C 1020.2 hPa SSW 8 km/h 12.9 km/h 78 % 0 mm 0 W/m2
18:55 17.7 °C 14 °C 1020.2 hPa SW 8 km/h 12.9 km/h 79 % 0 mm 0 W/m2
19:00 17.6 °C 13.9 °C 1020.2 hPa SW 8 km/h 17.7 km/h 79 % 0 mm 0 W/m2
19:05 17.6 °C 13.9 °C 1020.2 hPa SW 6.4 km/h 17.7 km/h 79 % 0 mm 0 W/m2
19:10 17.6 °C 13.9 °C 1020.2 hPa SW 1.6 km/h 17.7 km/h 79 % 0 mm 0 W/m2
19:15 17.4 °C 13.7 °C 1019.9 hPa South 1.6 km/h 11.3 km/h 79 % 0 mm 0 W/m2
19:20 17.3 °C 13.8 °C 1019.9 hPa SSW 3.2 km/h 11.3 km/h 80 % 0 mm 0 W/m2
19:25 17.2 °C 13.7 °C 1019.9 hPa SSW 4.8 km/h 16.1 km/h 80 % 0 mm 0 W/m2
19:30 17.2 °C 13.7 °C 1019.9 hPa SSW 6.4 km/h 16.1 km/h 80 % 0 mm 0 W/m2
19:35 17.1 °C 13.4 °C 1019.9 hPa SSW 4.8 km/h 12.9 km/h 79 % 0 mm 0 W/m2
19:40 17 °C 13.3 °C 1019.9 hPa SW 3.2 km/h 12.9 km/h 79 % 0 mm 0 W/m2
19:45 16.9 °C 13.4 °C 1020.2 hPa Calm   6.4 km/h 80 % 0 mm 0 W/m2
19:50 16.7 °C 13.2 °C 1019.9 hPa Calm   6.4 km/h 80 % 0 mm 0 W/m2
19:55 16.6 °C 13.3 °C 1019.9 hPa Calm   3.2 km/h 81 % 0 mm 0 W/m2
20:00 16.4 °C 13.1 °C 1019.9 hPa East 1.6 km/h 8 km/h 81 % 0 mm 0 W/m2
20:05 16.3 °C 13.2 °C 1019.9 hPa East 3.2 km/h 8 km/h 82 % 0 mm 0 W/m2
20:10 16.3 °C 13.2 °C 1019.9 hPa SE 4.8 km/h 12.9 km/h 82 % 0 mm 0 W/m2
20:15 16.3 °C 13.2 °C 1019.9 hPa South 6.4 km/h 14.5 km/h 82 % 0 mm 0 W/m2
20:20 16.4 °C 13.3 °C 1019.9 hPa SSW 8 km/h 14.5 km/h 82 % 0 mm 0 W/m2
20:25 16.5 °C 13.4 °C 1019.9 hPa SSW 6.4 km/h 14.5 km/h 82 % 0 mm 0 W/m2
20:30 16.5 °C 13.4 °C 1019.9 hPa SSW 4.8 km/h 17.7 km/h 82 % 0 mm 0 W/m2
20:35 16.6 °C 13.5 °C 1019.9 hPa SSW 6.4 km/h 17.7 km/h 82 % 0 mm 0 W/m2
20:40 16.7 °C 13.4 °C 1019.9 hPa SSW 3.2 km/h 14.5 km/h 81 % 0 mm 0 W/m2
20:45 16.7 °C 13.4 °C 1019.5 hPa SW 1.6 km/h 6.4 km/h 81 % 0 mm 0 W/m2
20:50 16.6 °C 13.3 °C 1019.5 hPa SSW 1.6 km/h 8 km/h 81 % 0 mm 0 W/m2
20:56 16.6 °C 13.5 °C 1019.5 hPa SSE 1.6 km/h 8 km/h 82 % 0 mm 0 W/m2
21:01 16.6 °C 13.5 °C 1019.5 hPa SSE 1.6 km/h 8 km/h 82 % 0 mm 0 W/m2
21:06 16.6 °C 13.5 °C 1019.5 hPa SSE 1.6 km/h 8 km/h 82 % 0 mm 0 W/m2
21:11 16.5 °C 13.4 °C 1019.5 hPa SSE 1.6 km/h 6.4 km/h 82 % 0 mm 0 W/m2
21:16 16.4 °C 13.3 °C 1019.5 hPa SSE 1.6 km/h 6.4 km/h 82 % 0 mm 0 W/m2
21:21 16.4 °C 13.3 °C 1019.2 hPa SSE 1.6 km/h 6.4 km/h 82 % 0 mm 0 W/m2
21:26 16.2 °C 13.3 °C 1019.5 hPa Calm   3.2 km/h 83 % 0 mm 0 W/m2
21:31 16.1 °C 13.2 °C 1019.2 hPa Calm   3.2 km/h 83 % 0 mm 0 W/m2
21:36 16 °C 13.3 °C 1019.2 hPa Calm   6.4 km/h 84 % 0 mm 0 W/m2
21:41 15.8 °C 13.1 °C 1019.2 hPa SSE 1.6 km/h 6.4 km/h 84 % 0 mm 0 W/m2
21:46 15.7 °C 13.2 °C 1019.2 hPa SSE 1.6 km/h 8 km/h 85 % 0 mm 0 W/m2
21:51 15.6 °C 13.1 °C 1019.2 hPa SSE 4.8 km/h 9.7 km/h 85 % 0 mm 0 W/m2
21:56 15.4 °C 13.1 °C 1019.2 hPa SSE 4.8 km/h 9.7 km/h 86 % 0 mm 0 W/m2
22:01 15.3 °C 12.9 °C 1019.2 hPa South 4.8 km/h 9.7 km/h 86 % 0 mm 0 W/m2
22:06 15.3 °C 13.2 °C 1018.8 hPa SSE 4.8 km/h 9.7 km/h 87 % 0 mm 0 W/m2
22:11 15.3 °C 13.2 °C 1018.8 hPa SSE 6.4 km/h 12.9 km/h 87 % 0 mm 0 W/m2
22:16 15.4 °C 13.2 °C 1018.8 hPa SSE 8 km/h 12.9 km/h 87 % 0 mm 0 W/m2
22:21 15.3 °C 13.2 °C 1018.8 hPa SSE 6.4 km/h 12.9 km/h 87 % 0 mm 0 W/m2
22:26 15.3 °C 13.2 °C 1018.8 hPa SSE 4.8 km/h 9.7 km/h 87 % 0 mm 0 W/m2
22:31 15.2 °C 13.2 °C 1018.8 hPa South 3.2 km/h 9.7 km/h 88 % 0 mm 0 W/m2
22:36 15.2 °C 13.2 °C 1018.8 hPa South 1.6 km/h 8 km/h 88 % 0 mm 0 W/m2
22:41 15.2 °C 13.2 °C 1018.8 hPa South 1.6 km/h 8 km/h 88 % 0 mm 0 W/m2
22:46 15.1 °C 13.1 °C 1018.8 hPa Calm   4.8 km/h 88 % 0 mm 0 W/m2
22:51 15 °C 13 °C 1018.8 hPa Calm   3.2 km/h 88 % 0 mm 0 W/m2
22:56 15 °C 13 °C 1018.8 hPa SW 3.2 km/h 19.3 km/h 88 % 0 mm 0 W/m2
23:01 15.1 °C 13.1 °C 1018.8 hPa SW 6.4 km/h 19.3 km/h 88 % 0 mm 0 W/m2
23:06 15.1 °C 12.9 °C 1018.8 hPa SSW 6.4 km/h 12.9 km/h 87 % 0 mm 0 W/m2
23:11 15.2 °C 13.1 °C 1018.8 hPa SSW 4.8 km/h 12.9 km/h 87 % 0 mm 0 W/m2
23:16 15.1 °C 12.8 °C 1018.5 hPa SSW 4.8 km/h 12.9 km/h 86 % 0 mm 0 W/m2
23:21 15.1 °C 12.8 °C 1018.5 hPa SSW 3.2 km/h 12.9 km/h 86 % 0 mm 0 W/m2
23:26 15 °C 12.7 °C 1018.5 hPa SSW 6.4 km/h 20.9 km/h 86 % 0 mm 0 W/m2
23:31 15 °C 12.7 °C 1018.5 hPa SW 11.3 km/h 24.1 km/h 86 % 0 mm 0 W/m2
23:36 15 °C 12.5 °C 1018.2 hPa SW 12.9 km/h 24.1 km/h 85 % 0 mm 0 W/m2
23:41 15 °C 12.5 °C 1018.2 hPa SW 12.9 km/h 22.5 km/h 85 % 0 mm 0 W/m2
23:46 14.9 °C 12.4 °C 1018.2 hPa SSW 9.7 km/h 16.1 km/h 85 % 0 mm 0 W/m2
23:51 14.9 °C 12.4 °C 1018.5 hPa SSW 8 km/h 17.7 km/h 85 % 0 mm 0 W/m2
23:56 14.8 °C 12.3 °C 1018.5 hPa SSW 9.7 km/h 19.3 km/h 85 % 0 mm 0 W/m2
Delerius-Weather
Compliments of Weather Underground - 2.25 mb

Data updates at regular intervals.